,,,PA_Meas_PMT16A,,PR_Meas_QMR101_102,,RH_Meas_QMH101,,SR_Meas_QMS101,,TA_Meas_QMH101,,GenWind,,GenWind,
date,time,status,PA,status,PR,status,RH,status,SR,status,TA,status,DirAvg,status,SpdAvg,
2012-01-03, 00:00:04,VALID,1003.37,VALID,0,VALID,76.182,VALID,0,VALID,28.1834,VALID,277,VALID,2.35156,
2012-01-03, 00:01:04,VALID,1003.37,VALID,0,VALID,76.0523,VALID,0.0815089,VALID,28.1813,VALID,251,VALID,1.9082,
2012-01-03, 00:02:04,VALID,1003.33,VALID,0,VALID,76.0752,VALID,0,VALID,28.244,VALID,308,VALID,1.19531,
2012-01-03, 00:03:04,VALID,1003.39,VALID,0,VALID,76.1439,VALID,0.0815089,VALID,28.2224,VALID,282,VALID,0.798437,
2012-01-03, 00:04:04,VALID,1003.35,VALID,0,VALID,76.037,VALID,0,VALID,28.2224,VALID,245,VALID,1.54883,
2012-01-03, 00:05:04,VALID,1003.36,VALID,0,VALID,76.449,VALID,0,VALID,28.2029,VALID,270,VALID,0.980469,
2012-01-03, 00:06:04,VALID,1003.36,VALID,0,VALID,76.6931,VALID,0,VALID,28.1834,VALID,283,VALID,1.09687,
2012-01-03, 00:07:04,VALID,1003.36,VALID,0,VALID,76.3498,VALID,0,VALID,28.1834,VALID,280,VALID,2.51406,
2012-01-03, 00:08:04,VALID,1003.32,VALID,0,VALID,76.4185,VALID,0,VALID,28.1834,VALID,309,VALID,1.00391,
2012-01-03, 00:09:04,VALID,1003.35,VALID,0,VALID,76.5634,VALID,0.0815089,VALID,28.1834,VALID,273,VALID,0.71875,
2012-01-03, 00:10:04,VALID,1003.31,VALID,0,VALID,75.1521,VALID,0,VALID,28.1639,VALID,283,VALID,1.89336,
2012-01-03, 00:11:04,VALID,1003.29,VALID,0,VALID,73.6416,VALID,0.0815089,VALID,28.1228,VALID,270,VALID,2.4082,
2012-01-03, 00:12:04,VALID,1003.31,VALID,0,VALID,73.4432,VALID,0.0815089,VALID,28.1618,VALID,241,VALID,1.67813,
2012-01-03, 00:13:04,VALID,1003.29,VALID,0,VALID,73.2907,VALID,0.0815089,VALID,28.1834,VALID,290,VALID,1.11875,
2012-01-03, 00:14:04,VALID,1003.25,VALID,0,VALID,73.2907,VALID,0.0815089,VALID,28.2029,VALID,283,VALID,1.73438,
2012-01-03, 00:15:04,VALID,1003.25,VALID,0,VALID,73.0465,VALID,0.0815089,VALID,28.1834,VALID,235,VALID,2.59961,
2012-01-03, 00:16:04,VALID,1003.25,VALID,0,VALID,72.7261,VALID,0,VALID,28.2029,VALID,268,VALID,2.26953,
2012-01-03, 00:17:04,VALID,1003.27,VALID,0,VALID,73.016,VALID,0.0815089,VALID,28.2029,VALID,281,VALID,1.36484,
2012-01-03, 00:18:04,VALID,1003.23,VALID,0,VALID,72.9931,VALID,0,VALID,28.2029,VALID,251,VALID,1.69687,
2012-01-03, 00:19:04,VALID,1003.23,VALID,0,VALID,73.0999,VALID,0,VALID,28.1618,VALID,258,VALID,1.52891,
2012-01-03, 00:20:04,VALID,1003.19,VALID,0,VALID,72.8482,VALID,0,VALID,28.2029,VALID,244,VALID,1.42852,
2012-01-03, 00:21:04,VALID,1003.16,VALID,0,VALID,73.0313,VALID,0,VALID,28.1618,VALID,267,VALID,1.73789,
2012-01-03, 00:22:04,VALID,1003.18,VALID,0,VALID,73.1152,VALID,0.0815089,VALID,28.2008,VALID,310,VALID,0.861719,
2012-01-03, 00:23:04,VALID,1003.14,VALID,0,VALID,73.222,VALID,0,VALID,28.2029,VALID,247,VALID,1.89375,
2012-01-03, 00:24:04,VALID,1003.17,VALID,0,VALID,73.1076,VALID,0,VALID,28.2224,VALID,292,VALID,2.11445,
2012-01-03, 00:25:04,VALID,1003.13,VALID,0,VALID,73.1533,VALID,0,VALID,28.2419,VALID,246,VALID,1.84883,
2012-01-03, 00:26:04,VALID,1003.11,VALID,0,VALID,73.1076,VALID,0.0815089,VALID,28.2419,VALID,236,VALID,2.15078,
2012-01-03, 00:27:04,VALID,1003.2,VALID,0,VALID,73.5577,VALID,0.0815089,VALID,28.2419,VALID,255,VALID,1.11445,
2012-01-03, 00:28:04,VALID,1003.09,VALID,0,VALID,73.3059,VALID,0,VALID,28.2224,VALID,318,VALID,3.30508,
2012-01-03, 00:29:04,VALID,1003.19,VALID,0,VALID,73.55,VALID,0.0815089,VALID,28.2008,VALID,272,VALID,0.901563,
2012-01-03, 00:30:04,VALID,1003.18,VALID,0,VALID,73.5806,VALID,0.0815089,VALID,28.2008,VALID,254,VALID,1.28477,
2012-01-03, 00:31:04,VALID,1003.19,VALID,0,VALID,73.4509,VALID,0,VALID,28.2029,VALID,297,VALID,1.28516,
2012-01-03, 00:32:04,VALID,1003.19,VALID,0,VALID,73.6492,VALID,0,VALID,28.2224,VALID,219,VALID,1.32969,
2012-01-03, 00:33:04,VALID,1003.16,VALID,0,VALID,73.5806,VALID,0,VALID,28.2224,VALID,246,VALID,1.87734,
2012-01-03, 00:34:04,VALID,1003.13,VALID,0,VALID,73.7026,VALID,0,VALID,28.2224,VALID,249,VALID,0.958203,
2012-01-03, 00:35:04,VALID,1003.09,VALID,0,VALID,73.9086,VALID,0.0815089,VALID,28.2202,VALID,275,VALID,1.4,
2012-01-03, 00:36:04,VALID,1003.11,VALID,0,VALID,74.1222,VALID,0.0815089,VALID,28.2614,VALID,295,VALID,1.83359,
2012-01-03, 00:37:04,VALID,1003.09,VALID,0,VALID,74.0383,VALID,0.0815089,VALID,28.2614,VALID,261,VALID,1.58359,
2012-01-03, 00:38:04,VALID,1003.04,VALID,0,VALID,74.2595,VALID,0.0815089,VALID,28.2614,VALID,266,VALID,1.34805,
2012-01-03, 00:39:04,VALID,1003.01,VALID,0,VALID,74.29,VALID,0,VALID,28.2419,VALID,292,VALID,1.21758,
2012-01-03, 00:40:04,VALID,1003.03,VALID,0,VALID,74.4426,VALID,0,VALID,28.2202,VALID,251,VALID,0.757031,
2012-01-03, 00:41:04,VALID,1002.99,VALID,0,VALID,74.1832,VALID,0.0815089,VALID,28.2419,VALID,284,VALID,1.66914,
2012-01-03, 00:42:04,VALID,1003.01,VALID,0,VALID,74.4426,VALID,0,VALID,28.2202,VALID,250,VALID,1.25273,
2012-01-03, 00:43:04,VALID,1002.98,VALID,0,VALID,74.496,VALID,0.0815089,VALID,28.2419,VALID,271,VALID,0.724219,
2012-01-03, 00:44:04,VALID,1002.94,VALID,0,VALID,74.1069,VALID,0,VALID,28.2224,VALID,327,VALID,1.27734,
2012-01-03, 00:45:04,VALID,1002.96,VALID,0,VALID,74.1146,VALID,0,VALID,28.2224,VALID,233,VALID,2.54258,
2012-01-03, 00:46:04,VALID,1002.96,VALID,0,VALID,74.1985,VALID,0,VALID,28.2419,VALID,220,VALID,1.19648,
2012-01-03, 00:47:04,VALID,1002.93,VALID,0,VALID,74.5265,VALID,0,VALID,28.2202,VALID,257,VALID,0.696484,
2012-01-03, 00:48:04,VALID,1002.94,VALID,0,VALID,74.4579,VALID,0,VALID,28.2008,VALID,303,VALID,0.782812,
2012-01-03, 00:49:04,VALID,1002.96,VALID,0,VALID,74.0612,VALID,0,VALID,28.2224,VALID,256,VALID,1.64922,
2012-01-03, 00:50:04,VALID,1002.95,VALID,0,VALID,73.6416,VALID,0,VALID,28.2419,VALID,287,VALID,2.01602,
2012-01-03, 00:51:04,VALID,1002.93,VALID,0,VALID,73.6645,VALID,0,VALID,28.2614,VALID,267,VALID,1.65703,
2012-01-03, 00:52:04,VALID,1002.93,VALID,0,VALID,73.4051,VALID,0,VALID,28.2635,VALID,291,VALID,1.57305,
2012-01-03, 00:53:04,VALID,1002.91,VALID,0,VALID,73.3517,VALID,0,VALID,28.2614,VALID,234,VALID,1.00234,
2012-01-03, 00:54:04,VALID,1002.88,VALID,0,VALID,72.7032,VALID,0,VALID,28.2614,VALID,260,VALID,1.53047,
2012-01-03, 00:55:04,VALID,1002.86,VALID,0,VALID,72.3752,VALID,0,VALID,28.2809,VALID,237,VALID,1.7875,
2012-01-03, 00:56:04,VALID,1002.86,VALID,0,VALID,72.337,VALID,0,VALID,28.2809,VALID,297,VALID,1.13828,
2012-01-03, 00:57:04,VALID,1002.82,VALID,0,VALID,72.0929,VALID,0,VALID,28.322,VALID,264,VALID,1.60273,
2012-01-03, 00:58:04,VALID,1002.79,VALID,0,VALID,71.536,VALID,0,VALID,28.2982,VALID,254,VALID,1.66875,
2012-01-03, 00:59:04,VALID,1002.78,VALID,0,VALID,71.4826,VALID,0,VALID,28.3198,VALID,264,VALID,2.08945,
2012-01-03, 01:00:04,VALID,1002.78,VALID,0,VALID,71.9327,VALID,0,VALID,28.3393,VALID,222,VALID,1.08281,
2012-01-03, 01:01:04,VALID,1002.74,VALID,0,VALID,71.8641,VALID,0,VALID,28.3198,VALID,248,VALID,1.40195,
2012-01-03, 01:02:04,VALID,1002.74,VALID,0,VALID,72.2302,VALID,0,VALID,28.2982,VALID,275,VALID,1.5293,
2012-01-03, 01:03:04,VALID,1002.73,VALID,0,VALID,72.543,VALID,0,VALID,28.3003,VALID,334,VALID,0.994141,
2012-01-03, 01:04:04,VALID,1002.74,VALID,0,VALID,72.7337,VALID,0,VALID,28.3003,VALID,259,VALID,1.3418,
2012-01-03, 01:05:04,VALID,1002.71,VALID,0,VALID,72.7871,VALID,0,VALID,28.2809,VALID,266,VALID,1.4168,
2012-01-03, 01:06:04,VALID,1002.71,VALID,0,VALID,73.1762,VALID,0,VALID,28.2592,VALID,267,VALID,1.10234,
2012-01-03, 01:07:04,VALID,1002.71,VALID,0,VALID,73.3135,VALID,0,VALID,28.2614,VALID,219,VALID,0.679297,
2012-01-03, 01:08:04,VALID,1002.74,VALID,0,VALID,73.0313,VALID,0,VALID,28.2809,VALID,306,VALID,1.45313,
2012-01-03, 01:09:04,VALID,1002.71,VALID,0,VALID,73.4814,VALID,0,VALID,28.2809,VALID,18,VALID,0.904688,
2012-01-03, 01:10:04,VALID,1002.71,VALID,0,VALID,73.6492,VALID,0,VALID,28.2614,VALID,307,VALID,0.75625,
2012-01-03, 01:11:04,VALID,1002.7,VALID,0,VALID,73.5272,VALID,0,VALID,28.2614,VALID,293,VALID,0.550391,
2012-01-03, 01:12:04,VALID,1002.71,VALID,0,VALID,73.6568,VALID,0,VALID,28.2614,VALID,256,VALID,0.629687,
2012-01-03, 01:13:04,VALID,1002.69,VALID,0,VALID,73.6568,VALID,0,VALID,28.2635,VALID,310,VALID,0.487891,
2012-01-03, 01:14:04,VALID,1002.71,VALID,0,VALID,73.5424,VALID,0,VALID,28.2419,VALID,252,VALID,1.22383,
2012-01-03, 01:15:04,VALID,1002.65,VALID,0,VALID,73.7636,VALID,0,VALID,28.2419,VALID,137,VALID,0.877344,
2012-01-03, 01:16:04,VALID,1002.64,VALID,0,VALID,73.4814,VALID,0,VALID,28.2224,VALID,309,VALID,0.535937,
2012-01-03, 01:17:04,VALID,1002.61,VALID,0,VALID,73.0923,VALID,0,VALID,28.2224,VALID,259,VALID,2.02695,
2012-01-03, 01:18:04,VALID,1002.65,VALID,0,VALID,72.8024,VALID,0,VALID,28.2224,VALID,242,VALID,1.0125,
2012-01-03, 01:19:04,VALID,1002.6,VALID,0,VALID,72.4896,VALID,0,VALID,28.2614,VALID,294,VALID,1.825,
2012-01-03, 01:20:04,VALID,1002.61,VALID,0,VALID,72.5049,VALID,0,VALID,28.2614,VALID,259,VALID,1.57578,
2012-01-03, 01:21:04,VALID,1002.6,VALID,0,VALID,72.3523,VALID,0,VALID,28.3198,VALID,251,VALID,1.81016,
2012-01-03, 01:22:04,VALID,1002.63,VALID,0,VALID,72.2913,VALID,0,VALID,28.2982,VALID,258,VALID,1.61758,
2012-01-03, 01:23:04,VALID,1002.61,VALID,0,VALID,72.2302,VALID,0,VALID,28.3177,VALID,302,VALID,0.860937,
2012-01-03, 01:24:04,VALID,1002.58,VALID,0,VALID,72.7414,VALID,0,VALID,28.3393,VALID,219,VALID,0.929688,
2012-01-03, 01:25:04,VALID,1002.57,VALID,0,VALID,72.9474,VALID,0,VALID,28.3393,VALID,262,VALID,1.51055,
2012-01-03, 01:26:04,VALID,1002.57,VALID,0,VALID,72.8711,VALID,0.0815089,VALID,28.3198,VALID,252,VALID,2.1793,
2012-01-03, 01:27:04,VALID,1002.53,VALID,0,VALID,72.7109,VALID,0.0815089,VALID,28.3393,VALID,253,VALID,1.14414,
2012-01-03, 01:28:04,VALID,1002.49,VALID,0,VALID,72.276,VALID,0.0815089,VALID,28.2982,VALID,234,VALID,1.59063,
2012-01-03, 01:29:04,VALID,1002.4,VALID,0,VALID,71.9785,VALID,0,VALID,28.3393,VALID,290,VALID,1.3625,
2012-01-03, 01:30:04,VALID,1002.36,VALID,0,VALID,71.6352,VALID,0,VALID,28.3588,VALID,266,VALID,3.31094,
2012-01-03, 01:31:04,VALID,1002.4,VALID,0,VALID,71.6352,VALID,0,VALID,28.3567,VALID,265,VALID,1.31211,
2012-01-03, 01:32:04,VALID,1002.33,VALID,0,VALID,71.9175,VALID,0,VALID,28.3762,VALID,274,VALID,2.31953,
2012-01-03, 01:33:04,VALID,1002.36,VALID,0,VALID,71.7725,VALID,0,VALID,28.4173,VALID,283,VALID,2.84102,
2012-01-03, 01:34:04,VALID,1002.32,VALID,0,VALID,71.9403,VALID,0,VALID,28.4173,VALID,236,VALID,1.86953,
2012-01-03, 01:35:04,VALID,1002.26,VALID,0,VALID,71.9861,VALID,0.0815089,VALID,28.4173,VALID,264,VALID,1.24648,
2012-01-03, 01:36:04,VALID,1002.29,VALID,0,VALID,72.07,VALID,0,VALID,28.4173,VALID,266,VALID,1.66953,
2012-01-03, 01:37:04,VALID,1002.24,VALID,0,VALID,72.2608,VALID,0.0815089,VALID,28.3762,VALID,285,VALID,1.66602,
2012-01-03, 01:38:04,VALID,1002.22,VALID,0,VALID,72.4057,VALID,0.0815089,VALID,28.3762,VALID,260,VALID,2.92344,
2012-01-03, 01:39:04,VALID,1002.2,VALID,0,VALID,72.276,VALID,0,VALID,28.3783,VALID,283,VALID,2.6125,
2012-01-03, 01:40:04,VALID,1002.19,VALID,0,VALID,72.3752,VALID,0,VALID,28.3978,VALID,300,VALID,1.60117,
2012-01-03, 01:41:04,VALID,1002.18,VALID,0,VALID,72.3676,VALID,0,VALID,28.3762,VALID,234,VALID,1.25937,
2012-01-03, 01:42:04,VALID,1002.16,VALID,0,VALID,72.3676,VALID,0,VALID,28.3567,VALID,218,VALID,1.40625,
2012-01-03, 01:43:04,VALID,1002.12,VALID,0,VALID,71.8183,VALID,0.0815089,VALID,28.3588,VALID,238,VALID,2.14297,
2012-01-03, 01:44:04,VALID,1002.04,VALID,0,VALID,70.6053,VALID,0,VALID,28.3588,VALID,247,VALID,3.82891,
2012-01-03, 01:45:04,VALID,1002.01,VALID,0,VALID,70.6282,VALID,0,VALID,28.3978,VALID,237,VALID,2.44805,
2012-01-03, 01:46:04,VALID,1002,VALID,0,VALID,70.5748,VALID,0.0815089,VALID,28.3978,VALID,268,VALID,1.91211,
2012-01-03, 01:47:04,VALID,1001.97,VALID,0,VALID,70.3917,VALID,0,VALID,28.3978,VALID,252,VALID,2.55742,
2012-01-03, 01:48:04,VALID,1001.96,VALID,0,VALID,70.468,VALID,0,VALID,28.3762,VALID,274,VALID,1.45859,
2012-01-03, 01:49:04,VALID,1001.95,VALID,0,VALID,70.3307,VALID,0,VALID,28.3762,VALID,249,VALID,1.92773,
2012-01-03, 01:50:04,VALID,1001.92,VALID,0,VALID,70.7502,VALID,0,VALID,28.3978,VALID,260,VALID,2.23164,
2012-01-03, 01:51:04,VALID,1001.9,VALID,0,VALID,70.7655,VALID,0,VALID,28.3783,VALID,281,VALID,2.17422,
2012-01-03, 01:52:04,VALID,1001.91,VALID,0,VALID,71.0783,VALID,0,VALID,28.3393,VALID,329,VALID,1.6957,
2012-01-03, 01:53:04,VALID,1001.86,VALID,0,VALID,71.5208,VALID,0,VALID,28.3393,VALID,287,VALID,2.17969,
2012-01-03, 01:54:04,VALID,1001.9,VALID,0,VALID,71.9861,VALID,0.0815089,VALID,28.3393,VALID,255,VALID,2.15039,
2012-01-03, 01:55:04,VALID,1001.88,VALID,0,VALID,72.4896,VALID,0,VALID,28.3003,VALID,228,VALID,0.894922,
2012-01-03, 01:56:04,VALID,1001.92,VALID,0,VALID,72.955,VALID,0,VALID,28.283,VALID,278,VALID,2.05586,
2012-01-03, 01:57:04,VALID,1001.87,VALID,0,VALID,73.1839,VALID,0,VALID,28.2397,VALID,218,VALID,1.15859,
2012-01-03, 01:58:04,VALID,1001.85,VALID,0,VALID,73.8094,VALID,0,VALID,28.2202,VALID,263,VALID,2.99297,
2012-01-03, 01:59:04,VALID,1001.89,VALID,0,VALID,74.1069,VALID,0,VALID,28.2202,VALID,263,VALID,1.0957,
2012-01-03, 02:00:04,VALID,1001.89,VALID,0,VALID,74.3282,VALID,0,VALID,28.1834,VALID,252,VALID,0.766797,
2012-01-03, 02:01:04,VALID,1001.9,VALID,0,VALID,74.2061,VALID,0,VALID,28.1618,VALID,258,VALID,1.33477,
2012-01-03, 02:02:04,VALID,1001.9,VALID,0,VALID,74.3206,VALID,0,VALID,28.1855,VALID,273,VALID,1.575,
2012-01-03, 02:03:04,VALID,1001.94,VALID,0,VALID,74.3129,VALID,0,VALID,28.1639,VALID,288,VALID,1.0625,
2012-01-03, 02:04:04,VALID,1001.92,VALID,0,VALID,74.1527,VALID,0,VALID,28.1249,VALID,241,VALID,1.93359,
2012-01-03, 02:05:04,VALID,1001.89,VALID,0,VALID,73.1381,VALID,0,VALID,28.1249,VALID,262,VALID,2.7543,
2012-01-03, 02:06:04,VALID,1001.95,VALID,0,VALID,73.4509,VALID,0,VALID,28.1639,VALID,21,VALID,1.02188,
2012-01-03, 02:07:04,VALID,1001.92,VALID,0,VALID,72.7185,VALID,0,VALID,28.1444,VALID,287,VALID,1.42695,
2012-01-03, 02:08:04,VALID,1001.96,VALID,0,VALID,72.276,VALID,0,VALID,28.1639,VALID,269,VALID,1.75156,
2012-01-03, 02:09:04,VALID,1001.93,VALID,0,VALID,71.9175,VALID,0,VALID,28.1834,VALID,274,VALID,1.76914,
2012-01-03, 02:10:04,VALID,1001.91,VALID,0,VALID,72.1616,VALID,0.0815089,VALID,28.1639,VALID,245,VALID,1.14961,
2012-01-03, 02:11:04,VALID,1001.96,VALID,0,VALID,71.8946,VALID,0,VALID,28.1423,VALID,272,VALID,2.10117,
2012-01-03, 02:12:04,VALID,1001.96,VALID,0,VALID,72.1768,VALID,0,VALID,28.1423,VALID,256,VALID,2.02969,
2012-01-03, 02:13:04,VALID,1001.93,VALID,0,VALID,72.009,VALID,0,VALID,28.1834,VALID,308,VALID,1.47656,
2012-01-03, 02:14:04,VALID,1001.96,VALID,0,VALID,72.1082,VALID,0,VALID,28.1855,VALID,308,VALID,1.47734,
2012-01-03, 02:15:04,VALID,1001.97,VALID,0,VALID,72.1768,VALID,0,VALID,28.166,VALID,267,VALID,3.2,
2012-01-03, 02:16:04,VALID,1001.96,VALID,0,VALID,72.0624,VALID,0,VALID,28.166,VALID,296,VALID,2.15547,
2012-01-03, 02:17:04,VALID,1001.99,VALID,0,VALID,72.5812,VALID,0,VALID,28.1466,VALID,139,VALID,0.910156,
2012-01-03, 02:18:04,VALID,1001.93,VALID,0,VALID,72.7948,VALID,0,VALID,28.1466,VALID,184,VALID,1.14141,
2012-01-03, 02:19:04,VALID,1001.92,VALID,0,VALID,73.0465,VALID,0,VALID,28.1271,VALID,234,VALID,1.27773,
2012-01-03, 02:20:04,VALID,1001.92,VALID,0,VALID,72.6956,VALID,0,VALID,28.1076,VALID,266,VALID,3.04297,
2012-01-03, 02:21:04,VALID,1001.86,VALID,0,VALID,72.894,VALID,0,VALID,28.1466,VALID,238,VALID,1.64023,
2012-01-03, 02:22:04,VALID,1001.81,VALID,0,VALID,72.9321,VALID,0,VALID,28.1271,VALID,230,VALID,1.74805,
2012-01-03, 02:23:04,VALID,1001.84,VALID,0,VALID,73.1686,VALID,0,VALID,28.1054,VALID,291,VALID,1.81719,
2012-01-03, 02:24:04,VALID,1001.86,VALID,0,VALID,72.8634,VALID,0,VALID,28.1271,VALID,246,VALID,2.00156,
2012-01-03, 02:25:04,VALID,1001.75,VALID,0,VALID,72.688,VALID,0,VALID,28.1076,VALID,248,VALID,1.9375,
2012-01-03, 02:26:04,VALID,1001.76,VALID,0,VALID,72.5049,VALID,0,VALID,28.1271,VALID,289,VALID,1.9418,
2012-01-03, 02:27:04,VALID,1001.8,VALID,0,VALID,72.6575,VALID,0,VALID,28.1076,VALID,298,VALID,1.82617,
2012-01-03, 02:28:04,VALID,1001.74,VALID,0,VALID,72.5049,VALID,0,VALID,28.1271,VALID,281,VALID,3.31367,
2012-01-03, 02:29:04,VALID,1001.73,VALID,0,VALID,72.7032,VALID,0,VALID,28.1466,VALID,280,VALID,2.31406,
2012-01-03, 02:30:04,VALID,1001.71,VALID,0,VALID,72.6422,VALID,0,VALID,28.1466,VALID,245,VALID,2.06172,
2012-01-03, 02:31:04,VALID,1001.72,VALID,0,VALID,73.1457,VALID,0,VALID,28.1249,VALID,265,VALID,2.44492,
2012-01-03, 02:32:04,VALID,1001.71,VALID,0,VALID,73.6263,VALID,0,VALID,28.1249,VALID,244,VALID,2.53828,
2012-01-03, 02:33:04,VALID,1001.72,VALID,0,VALID,73.901,VALID,0,VALID,28.1249,VALID,212,VALID,1.94727,
2012-01-03, 02:34:04,VALID,1001.64,VALID,0,VALID,74.0078,VALID,0,VALID,28.1033,VALID,272,VALID,2.38164,
2012-01-03, 02:35:04,VALID,1001.7,VALID,0,VALID,73.9773,VALID,0,VALID,28.1054,VALID,274,VALID,2.36523,
2012-01-03, 02:36:04,VALID,1001.74,VALID,0,VALID,74.3053,VALID,0,VALID,28.1249,VALID,299,VALID,1.56133,
2012-01-03, 02:37:04,VALID,1001.78,VALID,0,VALID,74.5876,VALID,0,VALID,28.1249,VALID,273,VALID,1.5375,
2012-01-03, 02:38:04,VALID,1001.78,VALID,0,VALID,74.9232,VALID,0,VALID,28.1054,VALID,290,VALID,1.45117,
2012-01-03, 02:39:04,VALID,1001.72,VALID,0,VALID,74.6333,VALID,0,VALID,28.1271,VALID,251,VALID,3.55039,
2012-01-03, 02:40:04,VALID,1001.76,VALID,0,VALID,74.8775,VALID,0,VALID,28.0859,VALID,276,VALID,2.24258,
2012-01-03, 02:41:04,VALID,1001.75,VALID,0,VALID,74.7935,VALID,0,VALID,28.0859,VALID,258,VALID,1.90625,
2012-01-03, 02:42:04,VALID,1001.76,VALID,0,VALID,74.9919,VALID,0,VALID,28.0665,VALID,259,VALID,1.12109,
2012-01-03, 02:43:04,VALID,1001.75,VALID,0,VALID,75.2894,VALID,0,VALID,28.047,VALID,277,VALID,1.55977,
2012-01-03, 02:44:04,VALID,1001.77,VALID,0,VALID,75.3657,VALID,0,VALID,28.0059,VALID,277,VALID,1.27813,
2012-01-03, 02:45:04,VALID,1001.76,VALID,0,VALID,75.2894,VALID,0,VALID,28.0254,VALID,249,VALID,1.60391,
2012-01-03, 02:46:04,VALID,1001.79,VALID,0,VALID,75.442,VALID,0,VALID,28.0275,VALID,232,VALID,1.36563,
2012-01-03, 02:47:04,VALID,1001.75,VALID,0,VALID,75.3123,VALID,0,VALID,28.008,VALID,197,VALID,1.13437,
2012-01-03, 02:48:04,VALID,1001.78,VALID,0,VALID,74.9843,VALID,0,VALID,27.9885,VALID,241,VALID,1.65039,
2012-01-03, 02:49:04,VALID,1001.77,VALID,0,VALID,75.3276,VALID,0,VALID,27.9885,VALID,197,VALID,0.926172,
2012-01-03, 02:50:04,VALID,1001.77,VALID,0,VALID,75.4344,VALID,0.0815089,VALID,27.969,VALID,228,VALID,2.5125,
2012-01-03, 02:51:04,VALID,1001.74,VALID,0,VALID,75.6632,VALID,0,VALID,27.9885,VALID,245,VALID,1.33438,
2012-01-03, 02:52:04,VALID,1001.69,VALID,0,VALID,75.2284,VALID,0,VALID,27.9669,VALID,243,VALID,1.62734,
2012-01-03, 02:53:04,VALID,1001.74,VALID,0,VALID,74.3816,VALID,0,VALID,27.969,VALID,238,VALID,2.15352,
2012-01-03, 02:54:04,VALID,1001.69,VALID,0,VALID,73.4737,VALID,0,VALID,28.0101,VALID,239,VALID,2.36172,
2012-01-03, 02:55:04,VALID,1001.67,VALID,0,VALID,73.6645,VALID,0,VALID,27.9885,VALID,289,VALID,1.3207,
2012-01-03, 02:56:04,VALID,1001.67,VALID,0,VALID,73.9849,VALID,0,VALID,27.9885,VALID,293,VALID,0.939844,
2012-01-03, 02:57:04,VALID,1001.66,VALID,0,VALID,74.0993,VALID,0,VALID,27.969,VALID,243,VALID,1.95117,
2012-01-03, 02:58:04,VALID,1001.61,VALID,0,VALID,73.9315,VALID,0,VALID,27.9885,VALID,259,VALID,1.58867,
2012-01-03, 02:59:04,VALID,1001.62,VALID,0,VALID,74.1832,VALID,0,VALID,27.969,VALID,262,VALID,1.54219,
2012-01-03, 03:00:04,VALID,1001.62,VALID,0,VALID,74.3282,VALID,0,VALID,27.9885,VALID,214,VALID,1.23633,
2012-01-03, 03:01:04,VALID,1001.61,VALID,0,VALID,74.4808,VALID,0,VALID,27.9669,VALID,258,VALID,2.44688,
2012-01-03, 03:02:04,VALID,1001.54,VALID,0,VALID,74.557,VALID,0,VALID,27.9885,VALID,264,VALID,1.81211,
2012-01-03, 03:03:04,VALID,1001.57,VALID,0,VALID,74.5036,VALID,0,VALID,27.9474,VALID,232,VALID,0.762891,
2012-01-03, 03:04:04,VALID,1001.52,VALID,0,VALID,74.5647,VALID,0,VALID,27.969,VALID,277,VALID,2.54883,
2012-01-03, 03:05:04,VALID,1001.48,VALID,0,VALID,74.4197,VALID,0.0815089,VALID,28.008,VALID,259,VALID,1.3625,
2012-01-03, 03:06:04,VALID,1001.51,VALID,0,VALID,74.9003,VALID,0.0815089,VALID,27.9864,VALID,100,VALID,0.957812,
2012-01-03, 03:07:04,VALID,1001.48,VALID,0,VALID,74.7935,VALID,0,VALID,27.9885,VALID,211,VALID,1.64766,
2012-01-03, 03:08:04,VALID,1001.48,VALID,0,VALID,74.2137,VALID,0,VALID,27.9885,VALID,325,VALID,1.675,
2012-01-03, 03:09:04,VALID,1001.48,VALID,0,VALID,73.5424,VALID,0,VALID,28.008,VALID,229,VALID,2.35313,
2012-01-03, 03:10:04,VALID,1001.48,VALID,0,VALID,73.2067,VALID,0,VALID,28.0275,VALID,278,VALID,1.73359,
2012-01-03, 03:11:04,VALID,1001.49,VALID,0,VALID,72.9931,VALID,0,VALID,28.047,VALID,239,VALID,1.24922,
2012-01-03, 03:12:04,VALID,1001.46,VALID,0,VALID,73.0542,VALID,0,VALID,28.047,VALID,287,VALID,1.51797,
2012-01-03, 03:13:04,VALID,1001.49,VALID,0,VALID,73.077,VALID,0,VALID,28.0665,VALID,240,VALID,1.93555,
2012-01-03, 03:14:04,VALID,1001.51,VALID,0,VALID,73.2296,VALID,0,VALID,28.0859,VALID,260,VALID,2.2125,
2012-01-03, 03:15:04,VALID,1001.47,VALID,0,VALID,73.0694,VALID,0,VALID,28.1054,VALID,230,VALID,3.42969,
2012-01-03, 03:16:04,VALID,1001.45,VALID,0,VALID,72.9474,VALID,0,VALID,28.0838,VALID,250,VALID,1.45703,
2012-01-03, 03:17:04,VALID,1001.43,VALID,0,VALID,72.4515,VALID,0,VALID,28.1054,VALID,287,VALID,1.95938,
2012-01-03, 03:18:04,VALID,1001.4,VALID,0,VALID,72.0853,VALID,0.0815089,VALID,28.1466,VALID,260,VALID,2.6168,
2012-01-03, 03:19:04,VALID,1001.46,VALID,0,VALID,72.4591,VALID,0,VALID,28.1249,VALID,238,VALID,2.09961,
2012-01-03, 03:20:04,VALID,1001.39,VALID,0,VALID,72.5964,VALID,0,VALID,28.1444,VALID,257,VALID,2.09609,
2012-01-03, 03:21:04,VALID,1001.4,VALID,0,VALID,72.3981,VALID,0,VALID,28.1444,VALID,265,VALID,2.11211,
2012-01-03, 03:22:04,VALID,1001.41,VALID,0,VALID,72.6956,VALID,0,VALID,28.1444,VALID,254,VALID,2.23242,
2012-01-03, 03:23:04,VALID,1001.4,VALID,0,VALID,72.5735,VALID,0,VALID,28.1444,VALID,255,VALID,1.53984,
2012-01-03, 03:24:04,VALID,1001.38,VALID,0,VALID,72.3904,VALID,0,VALID,28.1444,VALID,259,VALID,1.73555,
2012-01-03, 03:25:04,VALID,1001.45,VALID,0,VALID,72.4973,VALID,0,VALID,28.1249,VALID,300,VALID,1.1793,
2012-01-03, 03:26:04,VALID,1001.44,VALID,0,VALID,72.8482,VALID,0,VALID,28.1249,VALID,213,VALID,1.77539,
2012-01-03, 03:27:04,VALID,1001.49,VALID,0,VALID,73.2373,VALID,0,VALID,28.0859,VALID,265,VALID,1.16016,
2012-01-03, 03:28:04,VALID,1001.49,VALID,0,VALID,73.4051,VALID,0,VALID,28.0859,VALID,264,VALID,0.985156,
2012-01-03, 03:29:04,VALID,1001.47,VALID,0,VALID,73.5653,VALID,0,VALID,28.0881,VALID,282,VALID,0.706641,
2012-01-03, 03:30:04,VALID,1001.52,VALID,0,VALID,73.4661,VALID,0,VALID,28.047,VALID,175,VALID,0.726953,
2012-01-03, 03:31:04,VALID,1001.57,VALID,0,VALID,73.8781,VALID,0,VALID,28.047,VALID,264,VALID,1.60625,
2012-01-03, 03:32:04,VALID,1001.56,VALID,0,VALID,74.2443,VALID,0,VALID,28.0665,VALID,230,VALID,1.21016,
2012-01-03, 03:33:04,VALID,1001.57,VALID,0,VALID,74.5036,VALID,0,VALID,28.0059,VALID,220,VALID,1.26953,
2012-01-03, 03:34:04,VALID,1001.61,VALID,0,VALID,74.2672,VALID,0,VALID,28.0275,VALID,223,VALID,1.91992,
2012-01-03, 03:35:04,VALID,1001.63,VALID,0,VALID,74.435,VALID,0,VALID,28.0254,VALID,216,VALID,1.1082,
2012-01-03, 03:36:04,VALID,1001.61,VALID,0,VALID,74.1298,VALID,0,VALID,28.0275,VALID,269,VALID,1.94805,
2012-01-03, 03:37:04,VALID,1001.62,VALID,0,VALID,74.0383,VALID,0,VALID,28.047,VALID,220,VALID,1.51406,
2012-01-03, 03:38:04,VALID,1001.68,VALID,0,VALID,73.9925,VALID,0,VALID,28.0859,VALID,239,VALID,0.910937,
2012-01-03, 03:39:04,VALID,1001.7,VALID,0,VALID,74.1069,VALID,0,VALID,28.0665,VALID,244,VALID,1.41758,
2012-01-03, 03:40:04,VALID,1001.68,VALID,0,VALID,73.9467,VALID,0,VALID,28.0859,VALID,252,VALID,1.72109,
2012-01-03, 03:41:04,VALID,1001.69,VALID,0,VALID,74.2443,VALID,0,VALID,28.1249,VALID,241,VALID,0.894141,
2012-01-03, 03:42:04,VALID,1001.71,VALID,0,VALID,74.2672,VALID,0,VALID,28.0859,VALID,239,VALID,1.41328,
2012-01-03, 03:43:04,VALID,1001.67,VALID,0,VALID,74.1756,VALID,0,VALID,28.0859,VALID,272,VALID,1.40898,